| time (UTC) | temp F | wind direction | speed MPH | gust MPH | rain 1hr in | rain 24hr in | rain mn in | humidity % | barometer mb |
| 20260506161038 | 60 | 41 | 2.0 | 9.0 | 0.00 | 0.03 | 0.03 | 45 | 1013.0 |
| 20260506160538 | 60 | 0 | 0.0 | 9.0 | 0.00 | 0.03 | 0.03 | 45 | 1013.0 |
| 20260506160101 | 60 | 0 | 0.0 | 9.0 | 0.00 | 0.03 | 0.03 | 44 | 1012.9 |
| 20260506155537 | 60 | 0 | 0.0 | 9.0 | 0.00 | 0.03 | 0.03 | 44 | 1012.9 |
| 20260506155037 | 60 | 0 | 1.0 | 9.0 | 0.00 | 0.03 | 0.03 | 44 | 1012.9 |
| 20260506154552 | 60 | 0 | 1.0 | 8.0 | 0.00 | 0.03 | 0.03 | 44 | 1013.0 |
| 20260506154038 | 60 | 38 | 2.0 | 8.0 | 0.00 | 0.03 | 0.03 | 43 | 1013.0 |
| 20260506153537 | 60 | 0 | 3.0 | 9.0 | 0.00 | 0.03 | 0.03 | 42 | 1013.0 |
| 20260506153047 | 60 | 0 | 3.0 | 9.0 | 0.00 | 0.03 | 0.03 | 43 | 1012.9 |
| 20260506152536 | 60 | 321 | 3.0 | 6.0 | 0.00 | 0.03 | 0.03 | 43 | 1013.0 |
| 20260506152037 | 60 | 5 | 2.0 | 10.0 | 0.00 | 0.03 | 0.03 | 44 | 1013.0 |
| 20260506151545 | 60 | 317 | 4.0 | 10.0 | 0.00 | 0.03 | 0.03 | 44 | 1013.0 |
| 20260506151036 | 60 | 334 | 4.0 | 9.0 | 0.00 | 0.03 | 0.03 | 44 | 1013.0 |
| 20260506150537 | 60 | 36 | 3.0 | 9.0 | 0.00 | 0.03 | 0.03 | 44 | 1013.0 |
| 20260506150054 | 60 | 11 | 4.0 | 9.0 | 0.00 | 0.03 | 0.03 | 43 | 1013.0 |
| 20260506145537 | 60 | 360 | 2.0 | 8.0 | 0.00 | 0.03 | 0.03 | 43 | 1013.1 |
| 20260506145039 | 60 | 67 | 3.0 | 7.0 | 0.00 | 0.03 | 0.03 | 42 | 1013.1 |
| 20260506144559 | 60 | 46 | 3.0 | 7.0 | 0.00 | 0.03 | 0.03 | 43 | 1013.2 |
| 20260506144037 | 60 | 48 | 2.0 | 7.0 | 0.00 | 0.03 | 0.03 | 42 | 1013.1 |
| 20260506143537 | 60 | 12 | 3.0 | 8.0 | 0.00 | 0.03 | 0.03 | 42 | 1013.1 |
| 20260506143046 | 60 | 9 | 2.0 | 9.0 | 0.00 | 0.03 | 0.03 | 43 | 1013.2 |
| 20260506142536 | 60 | 360 | 3.0 | 9.0 | 0.00 | 0.03 | 0.03 | 43 | 1013.2 |
| 20260506142036 | 60 | 315 | 4.0 | 11.0 | 0.00 | 0.03 | 0.03 | 44 | 1013.3 |
| 20260506141553 | 60 | 344 | 5.0 | 11.0 | 0.00 | 0.03 | 0.03 | 42 | 1013.2 |
| 20260506141037 | 60 | 26 | 5.0 | 10.0 | 0.00 | 0.03 | 0.03 | 42 | 1013.3 |
| 20260506140536 | 60 | 36 | 4.0 | 9.0 | 0.00 | 0.03 | 0.03 | 43 | 1013.3 |
| 20260506140052 | 60 | 9 | 4.0 | 9.0 | 0.00 | 0.03 | 0.03 | 42 | 1013.2 |
| 20260506135536 | 61 | 43 | 4.0 | 7.0 | 0.00 | 0.03 | 0.03 | 42 | 1013.3 |
| 20260506135036 | 61 | 60 | 2.0 | 6.0 | 0.00 | 0.03 | 0.03 | 41 | 1013.2 |
| 20260506134549 | 61 | 57 | 2.0 | 7.0 | 0.00 | 0.03 | 0.03 | 42 | 1013.3 |
| 20260506134037 | 61 | 40 | 3.0 | 10.0 | 0.00 | 0.03 | 0.03 | 43 | 1013.4 |
| 20260506133538 | 61 | 306 | 4.0 | 11.0 | 0.00 | 0.03 | 0.03 | 42 | 1013.3 |
| 20260506133049 | 62 | 302 | 5.0 | 11.0 | 0.00 | 0.03 | 0.03 | 41 | 1013.4 |
| 20260506132541 | 61 | 0 | 2.0 | 8.0 | 0.00 | 0.03 | 0.03 | 43 | 1013.3 |
| 20260506132037 | 61 | 321 | 4.0 | 8.0 | 0.00 | 0.03 | 0.03 | 43 | 1013.4 |
| 20260506131557 | 61 | 271 | 3.0 | 10.0 | 0.00 | 0.03 | 0.03 | 42 | 1013.3 |
| 20260506131037 | 61 | 24 | 4.0 | 11.0 | 0.00 | 0.03 | 0.03 | 43 | 1013.4 |
| 20260506130537 | 60 | 44 | 3.0 | 11.0 | 0.00 | 0.03 | 0.03 | 42 | 1013.4 |
| 20260506130052 | 61 | 27 | 6.0 | 13.0 | 0.00 | 0.03 | 0.03 | 43 | 1013.4 |
| 20260506125536 | 61 | 96 | 4.0 | 13.0 | 0.00 | 0.03 | 0.03 | 43 | 1013.4 |
| 20260506125036 | 61 | 50 | 5.0 | 14.0 | 0.00 | 0.03 | 0.03 | 44 | 1013.4 |
| 20260506124550 | 61 | 352 | 5.0 | 14.0 | 0.00 | 0.03 | 0.03 | 43 | 1013.3 |
| 20260506124038 | 60 | 360 | 5.0 | 14.0 | 0.00 | 0.03 | 0.03 | 45 | 1013.3 |
| 20260506123538 | 61 | 291 | 3.0 | 11.0 | 0.00 | 0.03 | 0.03 | 44 | 1013.4 |
| 20260506123054 | 61 | 33 | 3.0 | 11.0 | 0.00 | 0.03 | 0.03 | 47 | 1013.4 |
| 20260506122538 | 61 | 69 | 5.0 | 11.0 | 0.00 | 0.03 | 0.03 | 45 | 1013.3 |
| 20260506122039 | 61 | 57 | 5.0 | 12.0 | 0.00 | 0.03 | 0.03 | 45 | 1013.5 |
| 20260506121550 | 61 | 58 | 3.0 | 12.0 | 0.00 | 0.03 | 0.03 | 46 | 1013.4 |
| 20260506121039 | 60 | 46 | 5.0 | 11.0 | 0.00 | 0.03 | 0.03 | 47 | 1013.5 |
| 20260506120537 | 60 | 51 | 4.0 | 9.0 | 0.00 | 0.03 | 0.03 | 48 | 1013.6 |
| 20260506120053 | 59 | 19 | 4.0 | 9.0 | 0.00 | 0.03 | 0.03 | 48 | 1013.5 |
| 20260506115537 | 59 | 35 | 2.0 | 9.0 | 0.00 | 0.03 | 0.03 | 48 | 1013.6 |
| 20260506115036 | 60 | 355 | 3.0 | 11.0 | 0.00 | 0.03 | 0.03 | 47 | 1013.6 |
| 20260506114554 | 60 | 329 | 4.0 | 11.0 | 0.00 | 0.03 | 0.03 | 48 | 1013.6 |
| 20260506114037 | 60 | 90 | 3.0 | 9.0 | 0.00 | 0.03 | 0.03 | 47 | 1013.6 |
| 20260506113537 | 60 | 81 | 3.0 | 9.0 | 0.00 | 0.03 | 0.03 | 46 | 1013.6 |
| 20260506113053 | 60 | 36 | 3.0 | 9.0 | 0.00 | 0.03 | 0.03 | 46 | 1013.7 |
| 20260506112537 | 60 | 90 | 3.0 | 9.0 | 0.00 | 0.03 | 0.03 | 48 | 1013.6 |
| 20260506112036 | 60 | 34 | 4.0 | 10.0 | 0.00 | 0.03 | 0.03 | 48 | 1013.7 |
| 20260506111552 | 60 | 32 | 4.0 | 10.0 | 0.00 | 0.03 | 0.03 | 48 | 1013.7 |
| 20260506111037 | 59 | 53 | 4.0 | 11.0 | 0.00 | 0.03 | 0.03 | 48 | 1013.7 |
| 20260506110536 | 59 | 360 | 6.0 | 11.0 | 0.00 | 0.03 | 0.03 | 47 | 1013.7 |
| 20260506110048 | 60 | 340 | 6.0 | 11.0 | 0.00 | 0.03 | 0.03 | 47 | 1013.7 |
| 20260506105536 | 59 | 36 | 4.0 | 11.0 | 0.00 | 0.03 | 0.03 | 51 | 1013.7 |
| 20260506105037 | 59 | 44 | 5.0 | 13.0 | 0.00 | 0.03 | 0.03 | 52 | 1013.7 |
| 20260506104555 | 58 | 113 | 5.0 | 13.0 | 0.00 | 0.03 | 0.03 | 55 | 1013.7 |
| 20260506104037 | 57 | 11 | 2.0 | 10.0 | 0.00 | 0.03 | 0.03 | 59 | 1013.9 |
| 20260506103537 | 56 | 10 | 2.0 | 10.0 | 0.00 | 0.03 | 0.03 | 59 | 1013.8 |
| 20260506103054 | 56 | 355 | 5.0 | 10.0 | 0.00 | 0.03 | 0.03 | 59 | 1013.8 |
| 20260506102537 | 56 | 346 | 3.0 | 9.0 | 0.00 | 0.03 | 0.03 | 60 | 1013.8 |
| 20260506102037 | 55 | 345 | 3.0 | 11.0 | 0.00 | 0.03 | 0.03 | 62 | 1013.8 |
| 20260506101550 | 54 | 32 | 6.0 | 11.0 | 0.00 | 0.03 | 0.03 | 62 | 1013.8 |
| 20260506101037 | 54 | 35 | 5.0 | 10.0 | 0.00 | 0.03 | 0.03 | 62 | 1013.9 |
| 20260506100536 | 54 | 38 | 4.0 | 9.0 | 0.00 | 0.03 | 0.03 | 62 | 1013.8 |
| 20260506095537 | 54 | 59 | 4.0 | 9.0 | 0.00 | 0.03 | 0.03 | 62 | 1013.8 |
| 20260506095037 | 54 | 83 | 4.0 | 13.0 | 0.00 | 0.03 | 0.03 | 62 | 1013.9 |
| 20260506094543 | 54 | 18 | 5.0 | 13.0 | 0.00 | 0.03 | 0.03 | 62 | 1013.9 |
| 20260506094036 | 53 | 44 | 5.0 | 11.0 | 0.00 | 0.03 | 0.03 | 63 | 1014.0 |
| 20260506093536 | 53 | 58 | 4.0 | 10.0 | 0.00 | 0.03 | 0.03 | 65 | 1013.8 |
| 20260506093047 | 53 | 57 | 4.0 | 11.0 | 0.00 | 0.03 | 0.03 | 65 | 1013.8 |
| 20260506092536 | 52 | 35 | 3.0 | 11.0 | 0.00 | 0.03 | 0.03 | 68 | 1013.8 |
| 20260506092040 | 52 | 51 | 3.0 | 6.0 | 0.00 | 0.03 | 0.03 | 69 | 1013.9 |
| 20260506091549 | 52 | 344 | 2.0 | 6.0 | 0.00 | 0.03 | 0.03 | 69 | 1013.8 |
| 20260506091034 | 52 | 30 | 2.0 | 6.0 | 0.00 | 0.03 | 0.03 | 69 | 1013.9 |
| 20260506090534 | 51 | 21 | 2.0 | 7.0 | 0.00 | 0.03 | 0.03 | 71 | 1013.8 |
| 20260506090050 | 51 | 28 | 3.0 | 11.0 | 0.00 | 0.03 | 0.03 | 72 | 1013.9 |
| 20260506085535 | 51 | 44 | 4.0 | 11.0 | 0.00 | 0.03 | 0.03 | 72 | 1013.9 |
| 20260506085037 | 51 | 38 | 6.0 | 11.0 | 0.00 | 0.03 | 0.03 | 72 | 1013.9 |
| 20260506084549 | 50 | 342 | 3.0 | 11.0 | 0.00 | 0.03 | 0.03 | 73 | 1013.9 |
| 20260506084037 | 50 | 343 | 4.0 | 11.0 | 0.00 | 0.03 | 0.03 | 74 | 1013.9 |
| 20260506083536 | 50 | 50 | 5.0 | 11.0 | 0.00 | 0.03 | 0.03 | 75 | 1014.0 |
| 20260506083054 | 50 | 348 | 4.0 | 10.0 | 0.00 | 0.03 | 0.03 | 75 | 1013.9 |
| 20260506082537 | 50 | 30 | 4.0 | 11.0 | 0.00 | 0.03 | 0.03 | 75 | 1013.9 |
| 20260506082036 | 50 | 46 | 5.0 | 11.0 | 0.00 | 0.03 | 0.03 | 76 | 1013.8 |
| 20260506081550 | 50 | 39 | 3.0 | 10.0 | 0.00 | 0.03 | 0.03 | 77 | 1013.9 |
| 20260506081036 | 49 | 24 | 2.0 | 8.0 | 0.00 | 0.03 | 0.03 | 78 | 1013.7 |
| 20260506080537 | 49 | 57 | 3.0 | 8.0 | 0.00 | 0.03 | 0.03 | 78 | 1013.7 |
| 20260506073047 | 49 | 50 | 1.0 | 5.0 | 0.00 | 0.03 | 0.03 | 81 | 1013.6 |
| 20260506072535 | 49 | 0 | 1.0 | 6.0 | 0.00 | 0.03 | 0.03 | 81 | 1013.5 |
| 20260506072037 | 49 | 0 | 2.0 | 7.0 | 0.00 | 0.03 | 0.03 | 81 | 1013.5 |
| 20260506071558 | 49 | 46 | 2.0 | 7.0 | 0.00 | 0.03 | 0.03 | 81 | 1013.5 |
| 20260506071036 | 49 | 13 | 3.0 | 9.0 | 0.00 | 0.03 | 0.03 | 81 | 1013.4 |
| 20260506070536 | 49 | 67 | 2.0 | 9.0 | 0.00 | 0.03 | 0.03 | 82 | 1013.4 |
| 20260506062039 | 49 | 48 | 2.0 | 9.0 | 0.00 | 0.03 | 0.03 | 83 | 1013.1 |
| 20260506061546 | 49 | 30 | 2.0 | 9.0 | 0.00 | 0.03 | 0.03 | 83 | 1013.2 |
| 20260506061039 | 49 | 34 | 3.0 | 9.0 | 0.00 | 0.03 | 0.03 | 83 | 1013.1 |
| 20260506060534 | 49 | 52 | 3.0 | 8.0 | 0.00 | 0.03 | 0.03 | 83 | 1013.1 |
| 20260506051036 | 50 | 27 | 0.0 | 5.0 | 0.03 | 0.03 | 0.03 | 84 | 1012.9 |
| 20260506050538 | 49 | 0 | 1.0 | 5.0 | 0.03 | 0.03 | 0.03 | 83 | 1012.9 |
| 20260506045038 | 50 | 28 | 1.0 | 5.0 | 0.02 | 0.02 | 0.02 | 82 | 1012.8 |
| 20260506044550 | 50 | 0 | 2.0 | 5.0 | 0.02 | 0.02 | 0.02 | 82 | 1012.7 |
| 20260506044036 | 50 | 27 | 3.0 | 7.0 | 0.01 | 0.01 | 0.01 | 81 | 1012.7 |
| 20260506043536 | 50 | 47 | 2.0 | 10.0 | 0.01 | 0.01 | 0.01 | 80 | 1012.7 |
| 20260506043050 | 51 | 51 | 4.0 | 10.0 | 0.00 | 0.00 | 0.00 | 78 | 1012.5 |
| 20260506042537 | 51 | 69 | 4.0 | 11.0 | 0.00 | 0.00 | 0.00 | 77 | 1012.5 |
| 20260506042036 | 51 | 44 | 3.0 | 11.0 | 0.00 | 0.00 | 0.00 | 75 | 1012.6 |
| 20260506041551 | 51 | 51 | 2.0 | 10.0 | 0.00 | 0.00 | 0.00 | 75 | 1012.5 |
| 20260506041036 | 51 | 40 | 3.0 | 10.0 | 0.00 | 0.00 | 0.00 | 74 | 1012.6 |
| 20260506040534 | 51 | 35 | 3.0 | 9.0 | 0.00 | 0.00 | 0.00 | 73 | 1012.6 |
| 20260506040048 | 52 | 26 | 3.0 | 10.0 | 0.00 | 0.00 | 0.00 | 73 | 1012.5 |
| 20260506035537 | 52 | 21 | 2.0 | 11.0 | 0.00 | 0.00 | 0.00 | 73 | 1012.5 |
| 20260506035034 | 52 | 33 | 3.0 | 11.0 | 0.00 | 0.00 | 0.00 | 73 | 1012.4 |
| 20260506034547 | 52 | 44 | 4.0 | 11.0 | 0.00 | 0.00 | 0.00 | 73 | 1012.4 |
| 20260506034038 | 52 | 78 | 4.0 | 10.0 | 0.00 | 0.00 | 0.00 | 73 | 1012.4 |
| 20260506033537 | 52 | 13 | 4.0 | 12.0 | 0.00 | 0.00 | 0.00 | 73 | 1012.5 |
| 20260506033047 | 52 | 16 | 4.0 | 12.0 | 0.00 | 0.00 | 0.00 | 73 | 1012.5 |
| 20260506032537 | 52 | 47 | 5.0 | 11.0 | 0.00 | 0.00 | 0.00 | 72 | 1012.5 |
| 20260506032040 | 52 | 42 | 3.0 | 11.0 | 0.00 | 0.00 | 0.00 | 73 | 1012.5 |
| 20260506031546 | 52 | 44 | 4.0 | 12.0 | 0.00 | 0.00 | 0.00 | 72 | 1012.5 |
| 20260506031037 | 52 | 46 | 5.0 | 12.0 | 0.00 | 0.00 | 0.00 | 73 | 1012.6 |
| 20260506030537 | 52 | 360 | 4.0 | 12.0 | 0.00 | 0.00 | 0.00 | 73 | 1012.6 |
| 20260506025536 | 52 | 5 | 4.0 | 11.0 | 0.00 | 0.00 | 0.00 | 73 | 1012.5 |
| 20260506025036 | 53 | 63 | 3.0 | 9.0 | 0.00 | 0.00 | 0.00 | 73 | 1012.5 |
| 20260506024555 | 53 | 346 | 4.0 | 9.0 | 0.00 | 0.00 | 0.00 | 73 | 1012.5 |
| 20260506024037 | 53 | 348 | 3.0 | 8.0 | 0.00 | 0.00 | 0.00 | 73 | 1012.5 |
| 20260506023537 | 53 | 11 | 4.0 | 8.0 | 0.00 | 0.00 | 0.00 | 73 | 1012.5 |
| 20260506023047 | 53 | 46 | 2.0 | 10.0 | 0.00 | 0.00 | 0.00 | 73 | 1012.5 |
| 20260506022537 | 53 | 59 | 3.0 | 10.0 | 0.00 | 0.00 | 0.00 | 73 | 1012.5 |
| 20260506022037 | 53 | 27 | 4.0 | 10.0 | 0.00 | 0.00 | 0.00 | 73 | 1012.5 |
| 20260506021547 | 53 | 53 | 3.0 | 9.0 | 0.00 | 0.00 | 0.00 | 73 | 1012.5 |
| 20260506021036 | 53 | 37 | 2.0 | 8.0 | 0.00 | 0.00 | 0.00 | 73 | 1012.5 |
| 20260506020536 | 53 | 61 | 3.0 | 8.0 | 0.00 | 0.00 | 0.00 | 73 | 1012.5 |
| 20260506020049 | 53 | 34 | 3.0 | 7.0 | 0.00 | 0.00 | 0.00 | 73 | 1012.5 |
| 20260506015538 | 53 | 38 | 2.0 | 6.0 | 0.00 | 0.00 | 0.00 | 73 | 1012.4 |
| 20260506015037 | 53 | 32 | 2.0 | 10.0 | 0.00 | 0.00 | 0.00 | 73 | 1012.5 |
| 20260506014557 | 53 | 28 | 3.0 | 10.0 | 0.00 | 0.00 | 0.00 | 73 | 1012.5 |
| 20260506014037 | 53 | 59 | 2.0 | 8.0 | 0.00 | 0.00 | 0.00 | 73 | 1012.4 |
| 20260506013536 | 53 | 17 | 2.0 | 8.0 | 0.00 | 0.00 | 0.00 | 73 | 1012.4 |
| 20260506013051 | 53 | 14 | 2.0 | 6.0 | 0.00 | 0.00 | 0.00 | 73 | 1012.5 |
| 20260506012538 | 53 | 17 | 2.0 | 6.0 | 0.00 | 0.00 | 0.00 | 73 | 1012.5 |
| 20260506012036 | 53 | 13 | 2.0 | 6.0 | 0.00 | 0.00 | 0.00 | 73 | 1012.5 |
| 20260506011546 | 53 | 34 | 2.0 | 10.0 | 0.00 | 0.00 | 0.00 | 72 | 1012.4 |
| 20260506011037 | 53 | 30 | 3.0 | 10.0 | 0.00 | 0.00 | 0.00 | 72 | 1012.5 |
| 20260506010534 | 53 | 336 | 3.0 | 9.0 | 0.00 | 0.00 | 0.00 | 72 | 1012.5 |
| 20260506010053 | 53 | 346 | 3.0 | 9.0 | 0.00 | 0.00 | 0.00 | 72 | 1012.5 |
| 20260506005536 | 53 | 5 | 3.0 | 10.0 | 0.00 | 0.00 | 0.00 | 72 | 1012.6 |
| 20260506005037 | 53 | 15 | 2.0 | 10.0 | 0.00 | 0.00 | 0.00 | 72 | 1012.5 |
| 20260506004553 | 53 | 18 | 3.0 | 8.0 | 0.00 | 0.00 | 0.00 | 72 | 1012.5 |
| 20260506004037 | 53 | 48 | 3.0 | 9.0 | 0.00 | 0.00 | 0.00 | 72 | 1012.5 |
| 20260506003537 | 53 | 22 | 3.0 | 9.0 | 0.00 | 0.00 | 0.00 | 71 | 1012.6 |
| 20260506003049 | 53 | 45 | 4.0 | 10.0 | 0.00 | 0.00 | 0.00 | 71 | 1012.5 |
| 20260506002536 | 54 | 22 | 3.0 | 10.0 | 0.00 | 0.00 | 0.00 | 71 | 1012.4 |
| 20260506002037 | 54 | 29 | 3.0 | 10.0 | 0.00 | 0.00 | 0.00 | 71 | 1012.4 |
| 20260506001556 | 54 | 26 | 3.0 | 10.0 | 0.00 | 0.00 | 0.00 | 71 | 1012.6 |
| 20260506001035 | 54 | 360 | 3.0 | 10.0 | 0.00 | 0.00 | 0.00 | 71 | 1012.5 |
| 20260506000534 | 54 | 5 | 3.0 | 9.0 | 0.00 | 0.00 | 0.00 | 71 | 1012.6 |
| 20260506000047 | 54 | 40 | 3.0 | 10.0 | 0.00 | 0.00 | 0.00 | 70 | 1012.4 |
| 20260505235536 | 54 | 44 | 3.0 | 10.0 | 0.00 | 0.00 | 0.00 | 70 | 1012.5 |
| 20260505235034 | 54 | 10 | 2.0 | 9.0 | 0.00 | 0.00 | 0.00 | 70 | 1012.5 |
| 20260505234548 | 54 | 330 | 3.0 | 8.0 | 0.00 | 0.00 | 0.00 | 70 | 1012.5 |
| 20260505234035 | 54 | 360 | 4.0 | 9.0 | 0.00 | 0.00 | 0.00 | 70 | 1012.5 |
| 20260505233534 | 54 | 25 | 3.0 | 11.0 | 0.00 | 0.00 | 0.00 | 70 | 1012.5 |
| 20260505233059 | 54 | 340 | 4.0 | 11.0 | 0.00 | 0.00 | 0.00 | 69 | 1012.6 |
| 20260505232534 | 54 | 34 | 3.0 | 9.0 | 0.00 | 0.00 | 0.00 | 69 | 1012.5 |
| 20260505232034 | 54 | 326 | 3.0 | 9.0 | 0.00 | 0.00 | 0.00 | 69 | 1012.6 |
| 20260505231550 | 54 | 321 | 3.0 | 9.0 | 0.00 | 0.00 | 0.00 | 69 | 1012.7 |
| 20260505231039 | 54 | 35 | 5.0 | 9.0 | 0.00 | 0.00 | 0.00 | 69 | 1012.7 |
| 20260505230536 | 55 | 13 | 3.0 | 9.0 | 0.00 | 0.00 | 0.00 | 69 | 1012.7 |
| 20260505230051 | 55 | 34 | 3.0 | 9.0 | 0.00 | 0.00 | 0.00 | 69 | 1012.7 |
| 20260505225537 | 55 | 23 | 2.0 | 9.0 | 0.00 | 0.00 | 0.00 | 68 | 1012.7 |
| 20260505225037 | 55 | 332 | 3.0 | 9.0 | 0.00 | 0.00 | 0.00 | 68 | 1012.7 |
| 20260505224549 | 55 | 19 | 3.0 | 9.0 | 0.00 | 0.00 | 0.00 | 68 | 1012.7 |
| 20260505224036 | 55 | 23 | 3.0 | 9.0 | 0.00 | 0.00 | 0.00 | 68 | 1012.6 |
| 20260505223537 | 55 | 13 | 4.0 | 13.0 | 0.00 | 0.00 | 0.00 | 68 | 1012.7 |
| 20260505223051 | 55 | 360 | 3.0 | 13.0 | 0.00 | 0.00 | 0.00 | 68 | 1012.7 |
| 20260505222534 | 55 | 338 | 4.0 | 13.0 | 0.00 | 0.00 | 0.00 | 68 | 1012.6 |
| 20260505222036 | 55 | 321 | 5.0 | 12.0 | 0.00 | 0.00 | 0.00 | 68 | 1012.7 |
| 20260505221553 | 55 | 11 | 3.0 | 10.0 | 0.00 | 0.00 | 0.00 | 68 | 1012.7 |
| 20260505221038 | 55 | 303 | 3.0 | 10.0 | 0.00 | 0.00 | 0.00 | 68 | 1012.8 |
| 20260505220534 | 55 | 27 | 5.0 | 11.0 | 0.00 | 0.00 | 0.00 | 67 | 1012.7 |
| 20260505220048 | 55 | 350 | 6.0 | 11.0 | 0.00 | 0.00 | 0.00 | 67 | 1012.8 |
| 20260505215538 | 55 | 19 | 4.0 | 13.0 | 0.00 | 0.00 | 0.00 | 67 | 1012.7 |
| 20260505215037 | 55 | 21 | 5.0 | 13.0 | 0.00 | 0.00 | 0.00 | 67 | 1012.7 |
| 20260505214548 | 55 | 337 | 4.0 | 10.0 | 0.00 | 0.00 | 0.00 | 66 | 1012.7 |
| 20260505214036 | 55 | 360 | 2.0 | 9.0 | 0.00 | 0.00 | 0.00 | 66 | 1012.8 |
| 20260505213537 | 56 | 9 | 1.0 | 9.0 | 0.00 | 0.00 | 0.00 | 66 | 1012.8 |
| 20260505213051 | 56 | 360 | 4.0 | 9.0 | 0.00 | 0.00 | 0.00 | 65 | 1012.8 |
| 20260505212537 | 56 | 11 | 2.0 | 9.0 | 0.00 | 0.00 | 0.00 | 65 | 1012.7 |
| 20260505212037 | 56 | 5 | 2.0 | 10.0 | 0.00 | 0.00 | 0.00 | 65 | 1012.7 |
| 20260505211546 | 56 | 13 | 3.0 | 13.0 | 0.00 | 0.00 | 0.00 | 64 | 1012.7 |
| 20260505211037 | 56 | 39 | 3.0 | 13.0 | 0.00 | 0.00 | 0.00 | 64 | 1012.7 |
| 20260505210536 | 56 | 349 | 5.0 | 11.0 | 0.00 | 0.00 | 0.00 | 64 | 1012.7 |
| 20260505210042 | 57 | 57 | 3.0 | 10.0 | 0.00 | 0.00 | 0.00 | 63 | 1012.6 |
| 20260505205541 | 57 | 331 | 4.0 | 11.0 | 0.00 | 0.00 | 0.00 | 63 | 1012.7 |
| 20260505205037 | 57 | 333 | 4.0 | 11.0 | 0.00 | 0.00 | 0.00 | 62 | 1012.7 |
| 20260505204553 | 58 | 331 | 2.0 | 10.0 | 0.00 | 0.00 | 0.00 | 62 | 1012.5 |
| 20260505204037 | 58 | 360 | 3.0 | 10.0 | 0.00 | 0.00 | 0.00 | 61 | 1012.5 |
| 20260505203538 | 58 | 340 | 3.0 | 10.0 | 0.00 | 0.00 | 0.00 | 61 | 1012.5 |
| 20260505203050 | 58 | 355 | 2.0 | 7.0 | 0.00 | 0.00 | 0.00 | 60 | 1012.5 |
| 20260505202538 | 58 | 342 | 3.0 | 8.0 | 0.00 | 0.00 | 0.00 | 60 | 1012.5 |
| 20260505202037 | 58 | 345 | 2.0 | 8.0 | 0.00 | 0.00 | 0.00 | 60 | 1012.5 |
| 20260505201548 | 58 | 5 | 2.0 | 8.0 | 0.00 | 0.00 | 0.00 | 60 | 1012.4 |
| 20260505201037 | 58 | 343 | 3.0 | 11.0 | 0.00 | 0.00 | 0.00 | 60 | 1012.4 |
| 20260505200537 | 58 | 16 | 2.0 | 11.0 | 0.00 | 0.00 | 0.00 | 60 | 1012.4 |
| 20260505200049 | 59 | 32 | 4.0 | 11.0 | 0.00 | 0.00 | 0.00 | 60 | 1012.3 |
| 20260505195539 | 59 | 48 | 1.0 | 9.0 | 0.00 | 0.00 | 0.00 | 60 | 1012.3 |
| 20260505195036 | 59 | 36 | 2.0 | 9.0 | 0.00 | 0.00 | 0.00 | 60 | 1012.3 |
| 20260505194556 | 59 | 13 | 3.0 | 12.0 | 0.00 | 0.00 | 0.00 | 60 | 1012.2 |
| 20260505194036 | 59 | 27 | 3.0 | 12.0 | 0.00 | 0.00 | 0.00 | 60 | 1012.1 |
| 20260505193535 | 59 | 17 | 2.0 | 10.0 | 0.00 | 0.00 | 0.00 | 59 | 1012.2 |
| 20260505193104 | 59 | 52 | 4.0 | 10.0 | 0.00 | 0.00 | 0.00 | 59 | 1012.2 |
| 20260505192534 | 59 | 314 | 2.0 | 9.0 | 0.00 | 0.00 | 0.00 | 59 | 1012.0 |
| 20260505192038 | 59 | 35 | 3.0 | 9.0 | 0.00 | 0.00 | 0.00 | 59 | 1012.1 |
| 20260505191548 | 60 | 42 | 3.0 | 8.0 | 0.00 | 0.00 | 0.00 | 59 | 1012.0 |
| 20260505191038 | 60 | 335 | 2.0 | 12.0 | 0.00 | 0.00 | 0.00 | 59 | 1012.0 |
| 20260505190536 | 60 | 343 | 3.0 | 12.0 | 0.00 | 0.00 | 0.00 | 59 | 1012.0 |
| 20260505190046 | 60 | 28 | 5.0 | 10.0 | 0.00 | 0.00 | 0.00 | 59 | 1012.0 |
| 20260505185536 | 60 | 5 | 1.0 | 9.0 | 0.00 | 0.00 | 0.00 | 60 | 1011.9 |
| 20260505185037 | 60 | 13 | 3.0 | 7.0 | 0.00 | 0.00 | 0.00 | 59 | 1011.9 |
| 20260505184551 | 60 | 355 | 2.0 | 8.0 | 0.00 | 0.00 | 0.00 | 59 | 1011.9 |
| 20260505184041 | 60 | 28 | 3.0 | 8.0 | 0.00 | 0.00 | 0.00 | 59 | 1011.8 |
| 20260505183536 | 60 | 24 | 3.0 | 8.0 | 0.00 | 0.00 | 0.00 | 58 | 1011.8 |
| 20260505183049 | 60 | 348 | 2.0 | 10.0 | 0.00 | 0.00 | 0.00 | 58 | 1011.8 |
| 20260505182534 | 60 | 30 | 4.0 | 10.0 | 0.00 | 0.00 | 0.00 | 58 | 1011.8 |
| 20260505182037 | 60 | 352 | 4.0 | 12.0 | 0.00 | 0.00 | 0.00 | 58 | 1011.8 |
| 20260505181541 | 60 | 342 | 5.0 | 12.0 | 0.00 | 0.00 | 0.00 | 58 | 1011.8 |
| 20260505181037 | 60 | 22 | 3.0 | 9.0 | 0.00 | 0.00 | 0.00 | 58 | 1011.7 |
| 20260505180538 | 61 | 340 | 2.0 | 12.0 | 0.00 | 0.00 | 0.00 | 58 | 1011.8 |
| 20260505180046 | 61 | 36 | 3.0 | 12.0 | 0.00 | 0.00 | 0.00 | 58 | 1011.8 |
| 20260505175537 | 61 | 42 | 5.0 | 12.0 | 0.00 | 0.00 | 0.00 | 58 | 1011.7 |
| 20260505175039 | 61 | 9 | 4.0 | 13.0 | 0.00 | 0.00 | 0.00 | 58 | 1011.7 |
| 20260505174547 | 61 | 19 | 5.0 | 13.0 | 0.00 | 0.00 | 0.00 | 58 | 1011.8 |
| 20260505174037 | 61 | 27 | 5.0 | 11.0 | 0.00 | 0.00 | 0.00 | 58 | 1011.7 |
| 20260505173536 | 61 | 23 | 3.0 | 11.0 | 0.00 | 0.00 | 0.00 | 58 | 1011.8 |
| 20260505173046 | 61 | 348 | 3.0 | 11.0 | 0.00 | 0.00 | 0.00 | 58 | 1011.8 |
| 20260505172536 | 61 | 49 | 3.0 | 11.0 | 0.00 | 0.00 | 0.00 | 58 | 1011.9 |
| 20260505172037 | 61 | 26 | 4.0 | 11.0 | 0.00 | 0.00 | 0.00 | 57 | 1011.9 |
| 20260505171550 | 61 | 24 | 5.0 | 11.0 | 0.00 | 0.00 | 0.00 | 57 | 1012.0 |
| 20260505171037 | 61 | 22 | 4.0 | 11.0 | 0.00 | 0.00 | 0.00 | 57 | 1011.9 |
| 20260505170536 | 61 | 40 | 2.0 | 9.0 | 0.00 | 0.00 | 0.00 | 57 | 1012.0 |
| 20260505170046 | 61 | 355 | 2.0 | 13.0 | 0.00 | 0.00 | 0.00 | 58 | 1012.0 |
| 20260505165534 | 61 | 40 | 3.0 | 13.0 | 0.00 | 0.00 | 0.00 | 58 | 1012.1 |
| 20260505165037 | 61 | 13 | 4.0 | 9.0 | 0.00 | 0.00 | 0.00 | 57 | 1012.0 |
| 20260505164547 | 61 | 355 | 3.0 | 9.0 | 0.00 | 0.00 | 0.00 | 57 | 1012.0 |
| 20260505164033 | 61 | 0 | 3.0 | 11.0 | 0.00 | 0.00 | 0.00 | 57 | 1012.1 |
| 20260505163537 | 61 | 38 | 4.0 | 11.0 | 0.00 | 0.00 | 0.00 | 56 | 1012.0 |
| 20260505163048 | 62 | 58 | 4.0 | 9.0 | 0.00 | 0.00 | 0.00 | 56 | 1012.0 |
| 20260505162538 | 62 | 0 | 1.0 | 10.0 | 0.00 | 0.00 | 0.00 | 57 | 1012.0 |
| 20260505162038 | 62 | 26 | 3.0 | 13.0 | 0.00 | 0.00 | 0.00 | 57 | 1012.1 |
| 20260505161556 | 62 | 0 | 2.0 | 13.0 | 0.00 | 0.00 | 0.00 | 57 | 1012.1 |